EW8862 Weather Reports


time (UTC)temp
C
wind
direction
speed
KPH
gust
KPH
rain 1hr
cm
rain 24hr
cm
rain mn
cm
humidity
%
barometer
mb
20260508004524 7 220 0.0 0.0 0.00 0.00 0.00 86 1016.6
20260508003019 7 220 0.0 0.0 0.00 0.00 0.00 85 1016.6
20260508001526 7 220 0.0 1.6 0.00 0.00 0.00 86 1016.6
20260508000011 7 220 0.0 0.0 0.00 0.00 0.00 86 1016.7
20260507234520 7 220 0.0 0.0 0.00 0.00 0.00 85 1016.9
20260507233028 7 220 0.0 0.0 0.00 0.00 0.00 84 1017.0
20260507231534 7 220 0.0 0.0 0.00 0.00 0.00 82 1016.9
20260507230026 7 220 0.0 0.0 0.00 0.00 0.00 79 1017.0
20260507224512 8 220 0.0 0.0 0.00 0.00 0.00 77 1017.0
20260507223022 9 220 0.0 0.0 0.00 0.00 0.00 76 1016.9
20260507221518 10 220 0.0 0.0 0.00 0.00 0.00 76 1016.7
20260507220026 10 221 0.0 0.0 0.00 0.00 0.00 75 1016.8
20260507214529 10 221 0.0 0.0 0.00 0.00 0.00 75 1017.0
20260507213022 10 221 0.0 0.0 0.00 0.00 0.00 74 1017.0
20260507211516 10 221 0.0 0.0 0.00 0.00 0.00 70 1017.0
20260507210023 11 221 0.0 0.0 0.00 0.00 0.00 69 1016.8
20260507204525 11 221 0.0 0.0 0.00 0.00 0.00 69 1016.7
20260507203028 12 221 0.0 0.0 0.00 0.00 0.00 67 1016.6
20260507201517 12 221 0.0 0.0 0.00 0.00 0.00 66 1016.4
20260507200029 12 221 0.0 0.0 0.00 0.00 0.00 65 1016.2
20260507194524 13 221 0.0 1.6 0.00 0.00 0.00 64 1015.9
20260507193032 13 221 0.0 1.6 0.00 0.00 0.00 64 1015.9
20260507191529 13 236 0.0 1.6 0.00 0.00 0.00 63 1015.8
20260507190016 13 225 0.0 1.6 0.00 0.00 0.00 61 1015.6
20260507184519 13 213 1.6 3.2 0.00 0.00 0.00 61 1015.6
20260507183034 14 271 1.6 3.2 0.00 0.00 0.00 59 1015.6
20260507181527 14 255 0.0 6.4 0.00 0.00 0.00 59 1015.5
20260507180037 14 217 1.6 6.4 0.00 0.00 0.00 58 1015.3
20260507174518 15 226 1.6 3.2 0.00 0.00 0.00 54 1015.2
20260507173020 15 108 0.0 1.6 0.00 0.00 0.00 53 1015.3
20260507171525 15 255 0.0 3.2 0.00 0.00 0.00 55 1015.3
20260507170027 15 239 0.0 3.2 0.00 0.00 0.00 53 1015.3
20260507164528 15 186 0.0 3.2 0.00 0.00 0.00 54 1015.4
20260507163019 15 204 1.6 4.8 0.00 0.00 0.00 55 1015.4
20260507161504 16 212 1.6 4.8 0.00 0.00 0.00 53 1015.3
20260507160006 16 225 0.0 3.2 0.00 0.00 0.00 42 1015.3
20260507154512 16 77 0.0 3.2 0.00 0.00 0.00 43 1015.3
20260507153016 16 97 0.0 4.8 0.00 0.00 0.00 41 1015.4
20260507151535 16 43 0.0 1.6 0.00 0.00 0.00 38 1015.4
20260507150005 16 76 0.0 3.2 0.00 0.00 0.00 39 1015.4
20260507144509 16 43 0.0 3.2 0.00 0.00 0.00 39 1015.4
20260507143010 16 36 1.6 4.8 0.00 0.00 0.00 39 1015.5
20260507141518 16 227 0.0 3.2 0.00 0.00 0.00 40 1015.6
20260507140022 16 280 1.6 6.4 0.00 0.00 0.00 39 1015.7
20260507134516 16 37 1.6 3.2 0.00 0.00 0.00 38 1015.8
20260507133010 16 271 0.0 4.8 0.00 0.00 0.00 41 1015.9
20260507131524 16 280 0.0 4.8 0.00 0.00 0.00 38 1016.0
20260507130020 16 212 1.6 4.8 0.00 0.00 0.00 38 1015.9
20260507124524 16 245 1.6 3.2 0.00 0.00 0.00 38 1016.0
20260507123016 16 229 0.0 4.8 0.00 0.00 0.00 40 1016.0
20260507121511 16 335 0.0 4.8 0.00 0.00 0.00 40 1016.1
20260507120014 16 117 0.0 3.2 0.00 0.00 0.00 40 1016.1
20260507114526 14 32 1.6 6.4 0.00 0.00 0.00 45 1016.2
20260507113026 15 65 1.6 3.2 0.00 0.00 0.00 44 1016.3
20260507111516 15 191 1.6 6.4 0.00 0.00 0.00 45 1016.3
20260507110013 14 54 1.6 6.4 0.00 0.00 0.00 48 1016.4
20260507104517 13 64 0.0 4.8 0.00 0.00 0.00 50 1016.5
20260507103026 13 40 0.0 4.8 0.00 0.00 0.00 51 1016.5
20260507101524 13 34 1.6 4.8 0.00 0.00 0.00 53 1016.6
20260507100008 13 243 0.0 1.6 0.00 0.00 0.00 56 1016.8
20260507094513 12 87 1.6 3.2 0.00 0.00 0.00 55 1016.7
20260507093017 12 246 1.6 6.4 0.00 0.00 0.00 58 1016.6
20260507091524 12 266 1.6 4.8 0.00 0.00 0.00 65 1016.7
20260507090035 11 28 1.6 4.8 0.00 0.00 0.00 73 1016.7
20260507084517 11 55 1.6 3.2 0.00 0.00 0.00 77 1016.8
20260507083016 10 357 0.0 3.2 0.00 0.00 0.00 80 1016.8
20260507081522 10 273 0.0 4.8 0.00 0.00 0.00 82 1016.8
20260507080028 9 320 1.6 3.2 0.00 0.00 0.00 84 1016.8
20260507074538 9 42 1.6 4.8 0.00 0.00 0.00 85 1016.7
20260507073012 8 25 0.0 3.2 0.00 0.00 0.00 87 1016.7
20260507071514 7 75 1.6 3.2 0.00 0.00 0.00 89 1016.6
20260507070024 6 30 0.0 1.6 0.00 0.00 0.00 90 1016.7
20260507064525 6 30 0.0 3.2 0.00 0.00 0.00 91 1016.7
20260507063034 6 30 0.0 1.6 0.00 0.00 0.00 92 1016.6
20260507061514 5 30 0.0 1.6 0.00 0.00 0.00 93 1016.6
20260507060020 5 30 0.0 1.6 0.00 0.00 0.00 93 1016.6
20260507054525 3 30 0.0 0.0 0.00 0.00 0.00 94 1016.5
20260507053026 3 30 0.0 0.0 0.00 0.00 0.00 93 1016.3
20260507051514 2 30 0.0 0.0 0.00 0.00 0.00 92 1016.2
20260507050018 2 30 0.0 0.0 0.00 0.00 0.00 91 1016.2
20260507044525 2 30 0.0 0.0 0.00 0.00 0.00 92 1016.1
20260507043026 2 30 0.0 0.0 0.00 0.00 0.00 91 1016.0
20260507041511 2 30 0.0 0.0 0.00 0.00 0.00 91 1016.1
20260507040016 2 30 0.0 0.0 0.00 0.00 0.00 90 1016.1
20260507034534 3 30 0.0 0.0 0.00 0.00 0.00 91 1016.0
20260507033024 3 30 0.0 0.0 0.00 0.00 0.00 90 1016.0
20260507031527 3 30 0.0 0.0 0.00 0.00 0.00 90 1016.0
20260507030015 3 30 0.0 0.0 0.00 0.00 0.00 90 1016.0
20260507024530 4 30 0.0 0.0 0.00 0.00 0.00 90 1015.9
20260507023022 4 30 0.0 0.0 0.00 0.00 0.00 90 1015.9
20260507021526 4 30 0.0 1.6 0.00 0.00 0.00 90 1016.0
20260507020030 5 52 0.0 0.0 0.00 0.00 0.00 89 1015.9
20260507014524 5 53 0.0 1.6 0.00 0.00 0.00 89 1015.8
20260507013016 5 52 0.0 1.6 0.00 0.00 0.00 89 1015.9
20260507011535 5 52 0.0 1.6 0.00 0.00 0.00 88 1015.9
20260507010026 5 52 0.0 1.6 0.00 0.00 0.00 89 1015.9